DW4230 Weather Reports


Display with metric or nautical units.
time (UTC)temp
F
wind
direction
speed
MPH
gust
MPH
rain 1hr
in
rain 24hr
in
rain mn
in
humidity
%
barometer
mb
20210615034623 65 204 0.0 0.0 0.00 0.25 0.25 60 1009.3
20210615033012 64 196 0.0 7.0 0.00 0.25 0.25 62 1009.3
20210615031640 64 181 1.0 6.0 0.00 0.25 0.25 64 1009.4
20210615030137 64 221 1.0 6.0 0.00 0.25 0.25 68 1009.5
20210615024613 64 198 0.0 0.0 0.00 0.25 0.25 69 1009.5
20210615023051 64 198 0.0 0.0 0.00 0.25 0.25 71 1009.6
20210615021620 64 203 0.0 0.0 0.00 0.25 0.25 73 1009.9
20210615020042 64 203 0.0 0.0 0.01 0.25 0.25 74 1010.0
20210615014556 64 203 0.0 0.0 0.01 0.25 0.25 76 1010.1
20210615013119 64 203 0.0 5.0 0.01 0.25 0.25 77 1010.1
20210615011529 64 202 0.0 5.0 0.01 0.25 0.25 80 1010.0
20210615010027 65 124 0.0 9.0 0.00 0.24 0.24 82 1009.8
20210615004547 65 170 2.0 7.0 0.00 0.24 0.24 85 1009.7
20210615000156 65 124 0.0 6.0 0.00 0.24 0.24 90 1010.2
20210614234607 65 209 0.0 5.0 0.00 0.24 0.24 90 1010.3
20210614233143 66 208 0.0 5.0 0.00 0.24 0.24 91 1010.2
20210614231752 66 210 1.0 5.0 0.00 0.24 0.24 91 1010.1
20210614230035 66 191 0.0 7.0 0.00 0.24 0.24 91 1010.1
20210614224636 66 209 1.0 8.0 0.00 0.24 0.24 91 1010.2
20210614223023 66 196 1.0 8.0 0.00 0.24 0.24 91 1010.1
20210614221522 66 195 3.0 11.0 0.00 0.24 0.24 91 1009.8
20210614220012 66 151 3.0 12.0 0.00 0.24 0.24 91 1010.1
20210614214510 67 162 4.0 12.0 0.00 0.24 0.24 91 1010.0
20210614213005 68 181 0.0 10.0 0.00 0.24 0.24 90 1010.3
20210614211532 68 191 4.0 11.0 0.00 0.24 0.24 90 1010.5
20210614210036 69 172 2.0 13.0 0.00 0.24 0.24 90 1010.5
20210614204550 68 237 5.0 11.0 0.00 0.24 0.24 91 1010.8
20210614203039 67 198 5.0 14.0 0.00 0.24 0.24 91 1011.0
20210614201502 67 208 3.0 12.0 0.01 0.24 0.24 90 1011.1
20210614200110 66 75 0.0 0.0 0.01 0.24 0.24 89 1011.4
20210614194550 65 75 0.0 5.0 0.01 0.24 0.24 88 1011.5
20210614193056 65 101 0.0 5.0 0.02 0.24 0.24 88 1011.7
20210614191521 65 89 0.0 4.0 0.05 0.23 0.23 87 1011.8
20210614190102 64 105 0.0 3.0 0.11 0.23 0.23 87 1011.9
20210614184926 64 194 0.0 0.0 0.14 0.23 0.23 90 1012.3
20210614184513 64 194 0.0 0.0 0.14 0.23 0.23 90 1012.4
20210614183113 64 194 0.0 0.0 0.16 0.22 0.22 91 1012.2
20210614181603 64 194 0.0 0.0 0.16 0.18 0.18 92 1012.5
20210614174617 64 194 0.0 0.0 0.09 0.09 0.09 91 1012.7
20210614173200 64 195 0.0 3.0 0.05 0.05 0.05 90 1013.2
20210614171750 65 124 3.0 8.0 0.02 0.02 0.02 88 1013.4
20210614163009 68 124 2.0 7.0 0.00 0.00 0.00 77 1013.6
20210614161658 69 206 0.0 6.0 0.00 0.00 0.00 75 1013.4
20210614160201 68 164 2.0 11.0 0.00 0.00 0.00 75 1013.3
20210614154503 70 124 1.0 15.0 0.00 0.00 0.00 77 1013.5
20210614153118 68 179 3.0 10.0 0.00 0.00 0.00 80 1013.4
20210614151537 67 170 0.0 7.0 0.00 0.00 0.00 82 1013.6
20210614150044 67 218 0.0 0.0 0.00 0.00 0.00 78 1014.0
20210614144510 67 225 0.0 0.0 0.00 0.00 0.00 79 1014.8
20210614143014 67 124 0.0 0.0 0.00 0.00 0.00 78 1015.2
20210614141626 68 124 0.0 4.0 0.00 0.00 0.00 78 1015.0
20210614140206 69 252 1.0 8.0 0.00 0.00 0.00 75 1014.5
20210614133015 69 204 1.0 11.0 0.00 0.00 0.00 75 1014.2
20210614131545 69 208 1.0 10.0 0.00 0.00 0.00 76 1013.7
20210614130042 68 173 4.0 10.0 0.00 0.00 0.00 77 1013.5
20210614121608 66 187 2.0 10.0 0.00 0.00 0.00 83 1013.4
20210614120126 65 193 3.0 8.0 0.00 0.00 0.00 86 1013.1
20210614114601 64 179 1.0 8.0 0.00 0.00 0.00 88 1013.1
20210614113119 63 191 1.0 12.0 0.00 0.00 0.00 90 1012.9
20210614111537 63 189 1.0 8.0 0.00 0.00 0.00 90 1013.0
20210614110005 62 188 3.0 9.0 0.00 0.00 0.00 89 1013.4
20210614104536 62 193 2.0 9.0 0.00 0.00 0.00 89 1013.5
20210614103039 61 182 1.0 7.0 0.00 0.00 0.00 89 1013.6
20210614101525 61 201 2.0 7.0 0.00 0.00 0.00 88 1013.4
20210614100046 61 200 2.0 7.0 0.00 0.00 0.00 89 1013.2
20210614094549 61 199 0.0 10.0 0.00 0.00 0.00 90 1013.1
20210614093059 61 200 1.0 7.0 0.00 0.00 0.00 91 1013.0
20210614091526 61 124 0.0 5.0 0.00 0.00 0.00 91 1013.3
20210614090030 61 124 3.0 11.0 0.00 0.00 0.00 91 1013.2
20210614084631 61 124 4.0 9.0 0.00 0.00 0.00 91 1013.3
20210614083050 61 219 4.0 10.0 0.00 0.00 0.00 91 1013.5
20210614081536 61 227 3.0 11.0 0.00 0.00 0.00 91 1013.2
20210614080026 62 124 4.0 10.0 0.00 0.00 0.00 91 1013.3
20210614074520 62 230 4.0 9.0 0.00 0.00 0.00 90 1013.4
20210614073035 61 124 6.0 11.0 0.00 0.00 0.00 90 1013.1
20210614070148 61 202 5.0 10.0 0.00 0.00 0.00 91 1013.2
20210614064734 62 124 1.0 7.0 0.00 0.00 0.00 90 1013.1
20210614063147 62 124 4.0 10.0 0.00 0.00 0.00 90 1013.1
20210614061801 62 124 4.0 10.0 0.00 0.00 0.00 90 1012.9
20210614060255 61 241 4.0 10.0 0.00 0.00 0.00 90 1012.8
20210614054723 62 220 3.0 8.0 0.00 0.00 0.00 90 1013.0
20210614053318 62 250 3.0 10.0 0.00 0.00 0.00 90 1013.0
20210614044504 62 255 4.0 10.0 0.00 0.00 0.00 89 1013.7
20210614043226 62 265 3.0 9.0 0.00 0.00 0.00 89 1013.8
20210614040238 62 262 0.0 7.0 0.00 0.00 0.00 88 1013.7